Location: Gombori
(14.9797°N, 2.9419°W)
Time: 02:54:39
(UTC+00:00)

CZ-4 R/B - Pass Details

Date: 04 December 2021
Orbit: 531 x 594 km, 97.7° (Epoch: 27 January)

Event Time Altitude Azimuth Distance (km) Brightness Sun altitude
Rises 19:16:59 0° 166° (SSE) 2,819 5.0 -22.6°
Reaches altitude 10° 19:19:09 10° 165° (SSE) 1,917 4.1 -23.1°
Enters shadow 19:21:57 42° 160° (SSE) 848 2.2 -23.8°
